DO8TBO-15 Weather Reports


Display with metric or nautical units.
time (UTC)temp
F
wind
direction
speed
MPH
gust
MPH
rain 1hr
in
rain 24hr
in
rain mn
in
humidity
%
barometer
mb
20260906105521 72 0.0 2.0 0.00 0.00 0.00 1027.8
20260906104517 71 225 0.0 3.0 0.00 0.00 0.00 1027.9
20260906103614 72 225 1.0 3.0 0.00 0.00 0.00 1028.0
20260906102610 71 158 0.0 4.0 0.00 0.00 0.00 1028.1
20260906101607 70 157 1.0 4.0 0.00 0.00 0.00 1027.9
20260906100603 71 0.0 1.0 0.00 0.00 0.00 1028.0
20260906095558 71 0.0 4.0 0.00 0.00 0.00 1028.2
20260906094554 70 180 0.0 2.0 0.00 0.00 0.00 1028.2
20260906093550 71 145 0.0 3.0 0.00 0.00 0.00 1028.3
20260906092547 70 0.0 1.0 0.00 0.00 0.00 1028.4
20260906091543 70 0.0 2.0 0.00 0.00 0.00 1028.4
20260906090540 69 0.0 0.0 0.00 0.00 0.00 1028.5
20260906084532 69 0.0 2.0 0.00 0.01 0.00 1028.4
20260906083528 68 45 0.0 4.0 0.00 0.01 0.00 1028.4
20260906082524 68 90 0.0 3.0 0.00 0.01 0.00 1028.5
20260906081521 67 45 1.0 3.0 0.00 0.01 0.00 1028.6
20260906080517 67 0.0 0.0 0.00 0.01 0.00 1028.6
20260906075614 67 180 1.0 2.0 0.00 0.01 0.00 1028.5
20260906074610 66 0.0 2.0 0.00 0.01 0.00 1028.2
20260906073607 65 0.0 0.0 0.00 0.01 0.00 1028.2
20260906072603 64 0.0 2.0 0.00 0.01 0.00 1028.2
20260906071559 64 0.0 1.0 0.00 0.01 0.00 1028.1
20260906064548 63 0.0 0.0 0.00 0.01 0.00 1028.2
20260906063544 60 0.0 0.0 0.00 0.01 0.00 1028.0
20260906062540 57 0.0 0.0 0.00 0.01 0.00 1028.0
20260906061536 53 0.0 0.0 0.00 0.01 0.00 1028.0
20260906055558 49 0.0 0.0 0.00 0.01 0.00 1027.8
20260906054554 48 0.0 0.0 0.00 0.01 0.00 1027.6
20260906053551 47 0.0 0.0 0.00 0.01 0.00 1027.7
20260906051543 46 0.0 1.0 0.00 0.01 0.00 1027.5
20260906050540 47 0.0 0.0 0.00 0.01 0.00 1027.3
20260906045536 47 0.0 0.0 0.00 0.01 0.00 1027.1
20260906044532 47 0.0 0.0 0.00 0.01 0.00 1027.3
20260906043558 47 0.0 0.0 0.00 0.01 0.00 1027.2
20260906042555 47 0.0 0.0 0.00 0.01 0.00 1027.3
20260906041551 47 0.0 0.0 0.00 0.01 0.00 1027.2
20260906040547 48 0.0 0.0 0.00 0.01 0.00 1027.2
20260906035543 48 0.0 0.0 0.00 0.01 0.00 1027.3
20260906033535 49 0.0 0.0 0.00 0.01 0.00 1027.0
20260906032531 49 0.0 0.0 0.00 0.01 0.00 1027.0
20260906031527 50 0.0 0.0 0.00 0.01 0.00 1027.0
20260906030524 50 0.0 0.0 0.00 0.01 0.00 1026.9
20260906025520 50 0.0 0.0 0.00 0.01 0.00 1026.8
20260906024517 50 0.0 0.0 0.00 0.01 0.00 1026.9
20260906022609 51 0.0 0.0 0.00 0.01 0.00 1026.5
20260906020601 52 0.0 0.0 0.00 0.01 0.00 1026.3
20260906015557 53 0.0 0.0 0.00 0.01 0.00 1026.2
20260906014554 53 0.0 0.0 0.00 0.01 0.00 1026.1
20260906013550 53 0.0 2.0 0.00 0.01 0.00 1026.1
20260906012546 52 0.0 2.0 0.00 0.01 0.00 1026.1
20260906011542 53 0.0 0.0 0.00 0.01 0.00 1026.2
20260906010539 53 0.0 1.0 0.00 0.01 0.00 1026.1
20260906005535 53 0.0 2.0 0.00 0.01 0.00 1026.1
20260906004532 53 0.0 2.0 0.00 0.02 0.00 1026.0
20260906003528 52 0.0 2.0 0.00 0.02 0.00 1026.1
20260906002524 52 0.0 1.0 0.00 0.02 0.00 1026.1
20260906001519 52 0.0 0.0 0.00 0.02 0.00 1026.0
20260906000516 52 0.0 0.0 0.00 0.02 0.00 1026.2
20260905235612 53 0.0 0.0 0.00 0.02 0.00 1026.1
20260905234609 53 0.0 0.0 0.00 0.02 0.00 1025.9
20260905233605 53 0.0 0.0 0.00 0.02 0.00 1025.8
20260905232601 54 0.0 0.0 0.00 0.02 0.00 1025.7
20260905231557 54 0.0 0.0 0.00 0.02 0.00 1025.5
20260905225549 55 0.0 0.0 0.00 0.02 0.00 1025.5
20260905224546 55 0.0 0.0 0.00 0.02 0.00 1025.4
20260905223542 55 0.0 0.0 0.00 0.02 0.00 1025.4
20260905222539 55 0.0 0.0 0.00 0.02 0.00 1025.2
20260905221535 55 0.0 0.0 0.00 0.02 0.00 1025.0
20260905220531 56 0.0 0.0 0.00 0.02 0.00 1025.0
20260905215527 58 0.0 0.0 0.00 0.02 0.02 1025.0
20260905214523 58 0.0 0.0 0.00 0.02 0.02 1024.9
20260905213519 58 0.0 0.0 0.00 0.02 0.02 1024.8
20260905212515 58 0.0 4.0 0.00 0.02 0.02 1024.8
20260905211612 57 0 0.0 4.0 0.00 0.02 0.02 1024.8
20260905205604 57 0.0 0.0 0.00 0.02 0.02 1024.7
20260905203557 57 0.0 0.0 0.00 0.02 0.02 1024.6
20260905202553 57 0.0 0.0 0.00 0.02 0.02 1024.6
20260905201550 58 0.0 0.0 0.00 0.02 0.02 1024.5
20260905200545 58 0.0 0.0 0.00 0.02 0.02 1024.4
20260905195542 59 0.0 0.0 0.00 0.02 0.02 1024.3
20260905194538 60 0.0 2.0 0.00 0.02 0.02 1024.2
20260905192600 61 0.0 2.0 0.00 0.02 0.02 1023.9
20260905191557 62 0.0 1.0 0.00 0.02 0.02 1023.9
20260905190552 62 0.0 0.0 0.00 0.02 0.02 1023.8
20260905185549 62 0.0 1.0 0.00 0.02 0.02 1023.8
20260905184545 63 0.0 0.0 0.00 0.02 0.02 1023.9
20260905183541 64 0.0 0.0 0.00 0.02 0.02 1023.7
20260905182537 65 0.0 0.0 0.00 0.02 0.02 1023.6
20260905180531 66 0.0 2.0 0.00 0.02 0.02 1023.4
20260905175527 67 0.0 2.0 0.00 0.02 0.02 1023.2
20260905174523 67 240 0.0 6.0 0.00 0.02 0.02 1023.1
20260905173519 68 0 0.0 2.0 0.00 0.02 0.02 1023.2
20260905172516 69 225 0.0 3.0 0.00 0.02 0.02 1022.9
20260905171611 69 270 0.0 4.0 0.00 0.02 0.02 1022.8
20260905170609 70 0.0 1.0 0.00 0.02 0.02 1022.7
20260905165604 71 135 1.0 8.0 0.00 0.02 0.02 1022.6
20260905164601 73 315 1.0 8.0 0.00 0.02 0.02 1022.4
20260905163557 73 6 3.0 11.0 0.00 0.02 0.02 1022.3
20260905162553 73 328 1.0 4.0 0.00 0.02 0.02 1022.3
20260905161549 73 352 1.0 7.0 0.00 0.02 0.02 1022.2
20260905160546 75 293 3.0 6.0 0.00 0.02 0.02 1022.1
20260905155542 73 18 1.0 5.0 0.00 0.02 0.02 1021.8
20260905154538 74 10 1.0 8.0 0.00 0.02 0.02 1021.8
20260905153534 75 321 2.0 7.0 0.00 0.02 0.02 1021.8
20260905152530 76 334 3.0 9.0 0.00 0.02 0.02 1021.7
20260905151526 77 312 3.0 9.0 0.00 0.02 0.02 1021.6
20260905150522 77 0 2.0 4.0 0.00 0.02 0.02 1021.5
20260905145519 76 314 2.0 11.0 0.00 0.02 0.02 1021.4
20260905143611 76 17 2.0 8.0 0.00 0.02 0.02 1021.3
20260905142608 75 40 3.0 9.0 0.00 0.02 0.02 1021.3
20260905141604 78 294 2.0 8.0 0.00 0.02 0.02 1021.3
20260905140600 77 90 4.0 11.0 0.00 0.02 0.02 1021.3
20260905135557 77 255 2.0 9.0 0.00 0.02 0.02 1021.3
20260905134553 77 346 3.0 8.0 0.00 0.02 0.02 1021.2
20260905133549 77 357 2.0 5.0 0.00 0.02 0.02 1021.3
20260905132545 77 288 2.0 7.0 0.00 0.02 0.02 1021.2
20260905131541 77 287 2.0 8.0 0.00 0.02 0.02 1021.0
20260905130537 76 315 2.0 6.0 0.00 0.02 0.02 1021.0
20260905125534 76 331 3.0 10.0 0.00 0.02 0.02 1021.0
20260905124559 76 302 2.0 9.0 0.00 0.02 0.02 1020.8
20260905123556 77 145 2.0 10.0 0.00 0.02 0.02 1021.0
20260905122553 77 163 1.0 5.0 0.00 0.02 0.02 1020.9
20260905121548 76 31 2.0 10.0 0.00 0.02 0.02 1020.9
20260905120546 74 113 3.0 11.0 0.00 0.02 0.02 1021.0
20260905115541 74 21 2.0 9.0 0.00 0.02 0.02 1020.7
20260905114538 73 286 3.0 8.0 0.00 0.02 0.02 1020.8
20260905113534 74 273 3.0 15.0 0.00 0.02 0.02 1020.7
20260905112530 73 311 2.0 7.0 0.00 0.02 0.02 1020.9
20260905111526 74 307 3.0 11.0 0.00 0.02 0.02 1020.9
20260905110523 73 0 1.0 3.0 0.00 0.02 0.02 1021.0